| time (UTC) | temp F | wind direction | speed MPH | gust MPH | rain 1hr in | rain 24hr in | rain mn in | humidity % | barometer mb |
| 20260508230516 | 66 | 19 | 1.0 | 5.0 | 0.00 | 0.01 | 0.01 | 49 | 1011.6 |
| 20260508225516 | 67 | 49 | 1.0 | 3.0 | 0.00 | 0.01 | 0.01 | 48 | 1011.6 |
| 20260508224520 | 67 | 51 | 1.0 | 3.0 | 0.00 | 0.01 | 0.01 | 50 | 1011.6 |
| 20260508223540 | 68 | 39 | 1.0 | 5.0 | 0.00 | 0.01 | 0.01 | 48 | 1011.5 |
| 20260508222519 | 68 | 15 | 1.0 | 5.0 | 0.00 | 0.01 | 0.01 | 45 | 1011.4 |
| 20260508221517 | 68 | 38 | 2.0 | 5.0 | 0.00 | 0.01 | 0.01 | 46 | 1011.4 |
| 20260508220517 | 69 | 10 | 1.0 | 4.0 | 0.00 | 0.01 | 0.01 | 44 | 1011.4 |
| 20260508215520 | 68 | 39 | 1.0 | 5.0 | 0.00 | 0.01 | 0.01 | 45 | 1011.3 |
| 20260508214517 | 68 | 60 | 2.0 | 4.0 | 0.00 | 0.01 | 0.01 | 44 | 1011.5 |
| 20260508213517 | 68 | 35 | 1.0 | 5.0 | 0.00 | 0.01 | 0.01 | 45 | 1011.5 |
| 20260508212517 | 68 | 82 | 1.0 | 3.0 | 0.00 | 0.01 | 0.01 | 45 | 1011.5 |
| 20260508211517 | 70 | 10 | 2.0 | 7.0 | 0.00 | 0.01 | 0.01 | 43 | 1011.6 |
| 20260508210517 | 70 | 22 | 2.0 | 5.0 | 0.00 | 0.01 | 0.01 | 42 | 1011.8 |
| 20260508205518 | 72 | 59 | 3.0 | 6.0 | 0.00 | 0.01 | 0.01 | 41 | 1012.0 |
| 20260508204518 | 72 | 15 | 2.0 | 6.0 | 0.00 | 0.01 | 0.01 | 42 | 1012.1 |
| 20260508203524 | 71 | 7 | 2.0 | 10.0 | 0.00 | 0.01 | 0.01 | 43 | 1012.2 |
| 20260508202518 | 70 | 22 | 1.0 | 4.0 | 0.00 | 0.01 | 0.01 | 44 | 1012.6 |
| 20260508201518 | 70 | 41 | 2.0 | 5.0 | 0.00 | 0.01 | 0.01 | 42 | 1012.6 |
| 20260508200518 | 69 | 3 | 2.0 | 7.0 | 0.00 | 0.01 | 0.01 | 44 | 1012.8 |
| 20260508195519 | 70 | 32 | 2.0 | 6.0 | 0.00 | 0.01 | 0.01 | 42 | 1012.9 |
| 20260508194516 | 70 | 358 | 2.0 | 9.0 | 0.00 | 0.01 | 0.01 | 42 | 1012.9 |
| 20260508193519 | 71 | 3 | 2.0 | 7.0 | 0.00 | 0.01 | 0.01 | 41 | 1013.0 |
| 20260508192539 | 71 | 82 | 2.0 | 5.0 | 0.00 | 0.01 | 0.01 | 43 | 1013.0 |
| 20260508191559 | 71 | 14 | 3.0 | 9.0 | 0.00 | 0.01 | 0.01 | 40 | 1013.2 |
| 20260508190516 | 72 | 21 | 3.0 | 6.0 | 0.00 | 0.01 | 0.01 | 39 | 1013.3 |
| 20260508185539 | 73 | 12 | 3.0 | 7.0 | 0.00 | 0.01 | 0.01 | 41 | 1013.4 |
| 20260508184520 | 74 | 360 | 3.0 | 10.0 | 0.00 | 0.01 | 0.01 | 39 | 1013.5 |
| 20260508183520 | 74 | 139 | 1.0 | 3.0 | 0.00 | 0.01 | 0.01 | 43 | 1013.8 |
| 20260508182537 | 74 | 351 | 2.0 | 7.0 | 0.00 | 0.01 | 0.01 | 42 | 1014.0 |
| 20260508181517 | 73 | 357 | 3.0 | 7.0 | 0.00 | 0.01 | 0.01 | 38 | 1014.2 |
| 20260508180517 | 74 | 46 | 2.0 | 6.0 | 0.00 | 0.01 | 0.01 | 42 | 1014.3 |
| 20260508175517 | 73 | 28 | 2.0 | 7.0 | 0.00 | 0.01 | 0.01 | 42 | 1014.5 |
| 20260508174517 | 74 | 22 | 2.0 | 5.0 | 0.01 | 0.01 | 0.01 | 39 | 1014.6 |
| 20260508173517 | 74 | 359 | 2.0 | 5.0 | 0.01 | 0.01 | 0.01 | 40 | 1014.8 |
| 20260508172518 | 72 | 67 | 2.0 | 6.0 | 0.01 | 0.01 | 0.01 | 41 | 1014.8 |
| 20260508171518 | 73 | 58 | 2.0 | 6.0 | 0.01 | 0.01 | 0.01 | 42 | 1015.2 |
| 20260508170518 | 73 | 61 | 2.0 | 6.0 | 0.01 | 0.01 | 0.01 | 41 | 1015.3 |
| 20260508165518 | 73 | 345 | 2.0 | 7.0 | 0.01 | 0.01 | 0.01 | 42 | 1015.5 |
| 20260508164538 | 73 | 344 | 2.0 | 7.0 | 0.00 | 0.00 | 0.00 | 42 | 1015.8 |
| 20260508163518 | 72 | 12 | 3.0 | 8.0 | 0.00 | 0.00 | 0.00 | 41 | 1015.9 |
| 20260508162519 | 72 | 57 | 2.0 | 8.0 | 0.00 | 0.00 | 0.00 | 42 | 1016.1 |
| 20260508161518 | 73 | 21 | 3.0 | 8.0 | 0.00 | 0.00 | 0.00 | 42 | 1016.3 |
| 20260508160519 | 73 | 50 | 2.0 | 6.0 | 0.00 | 0.00 | 0.00 | 41 | 1016.4 |
| 20260508155516 | 72 | 46 | 2.0 | 6.0 | 0.00 | 0.00 | 0.00 | 43 | 1016.4 |
| 20260508154519 | 73 | 22 | 2.0 | 5.0 | 0.00 | 0.00 | 0.00 | 44 | 1016.6 |
| 20260508153519 | 72 | 37 | 2.0 | 4.0 | 0.00 | 0.00 | 0.00 | 43 | 1016.8 |
| 20260508152519 | 73 | 131 | 2.0 | 6.0 | 0.00 | 0.00 | 0.00 | 42 | 1016.9 |
| 20260508151536 | 72 | 67 | 1.0 | 5.0 | 0.00 | 0.00 | 0.00 | 43 | 1017.0 |
| 20260508150517 | 71 | 21 | 2.0 | 6.0 | 0.00 | 0.00 | 0.00 | 43 | 1017.1 |
| 20260508145519 | 71 | 55 | 2.0 | 6.0 | 0.00 | 0.00 | 0.00 | 43 | 1017.2 |
| 20260508144520 | 70 | 27 | 2.0 | 5.0 | 0.00 | 0.00 | 0.00 | 42 | 1017.2 |
| 20260508143517 | 69 | 20 | 2.0 | 8.0 | 0.00 | 0.00 | 0.00 | 45 | 1017.3 |
| 20260508142517 | 68 | 21 | 2.0 | 6.0 | 0.00 | 0.00 | 0.00 | 43 | 1017.3 |
| 20260508141517 | 68 | 11 | 2.0 | 5.0 | 0.00 | 0.00 | 0.00 | 45 | 1017.4 |
| 20260508140517 | 66 | 354 | 2.0 | 5.0 | 0.00 | 0.00 | 0.00 | 47 | 1017.4 |
| 20260508135517 | 64 | 11 | 2.0 | 5.0 | 0.00 | 0.00 | 0.00 | 49 | 1017.5 |
| 20260508134518 | 62 | 14 | 2.0 | 8.0 | 0.00 | 0.00 | 0.00 | 51 | 1017.5 |
| 20260508133518 | 60 | 29 | 2.0 | 6.0 | 0.00 | 0.00 | 0.00 | 54 | 1017.5 |
| 20260508132518 | 57 | 1 | 2.0 | 4.0 | 0.00 | 0.00 | 0.00 | 58 | 1017.6 |
| 20260508131517 | 54 | 7 | 2.0 | 4.0 | 0.00 | 0.00 | 0.00 | 63 | 1017.6 |
| 20260508130518 | 53 | 22 | 2.0 | 5.0 | 0.00 | 0.00 | 0.00 | 66 | 1017.6 |
| 20260508125518 | 53 | 23 | 2.0 | 5.0 | 0.00 | 0.00 | 0.00 | 63 | 1017.5 |
| 20260508124518 | 50 | 54 | 1.0 | 3.0 | 0.00 | 0.00 | 0.00 | 67 | 1017.5 |
| 20260508123518 | 47 | 3 | 1.0 | 4.0 | 0.00 | 0.00 | 0.00 | 75 | 1017.4 |
| 20260508122518 | 46 | 349 | 1.0 | 4.0 | 0.00 | 0.00 | 0.00 | 77 | 1017.3 |
| 20260508121519 | 45 | 23 | 0.0 | 2.0 | 0.00 | 0.00 | 0.00 | 81 | 1017.2 |
| 20260508120539 | 44 | 6 | 1.0 | 2.0 | 0.00 | 0.00 | 0.00 | 82 | 1017.2 |
| 20260508115519 | 43 | 19 | 1.0 | 2.0 | 0.00 | 0.00 | 0.00 | 84 | 1017.2 |
| 20260508114536 | 41 | 12 | 2.0 | 3.0 | 0.00 | 0.00 | 0.00 | 89 | 1017.0 |
| 20260508113519 | 40 | 9 | 1.0 | 2.0 | 0.00 | 0.00 | 0.00 | 95 | 1016.9 |
| 20260508112519 | 39 | 26 | 0.0 | 1.0 | 0.00 | 0.00 | 0.00 | 95 | 1016.8 |
| 20260508111519 | 38 | 11 | 0.0 | 2.0 | 0.00 | 0.00 | 0.00 | 95 | 1016.8 |
| 20260508110516 | 38 | 30 | 0.0 | 2.0 | 0.00 | 0.00 | 0.00 | 95 | 1016.6 |
| 20260508104519 | 39 | 20 | 0.0 | 2.0 | 0.00 | 0.00 | 0.00 | 95 | 1016.5 |
| 20260508103520 | 39 | 6 | 0.0 | 2.0 | 0.00 | 0.00 | 0.00 | 95 | 1016.5 |
| 20260508102517 | 39 | 7 | 1.0 | 2.0 | 0.00 | 0.00 | 0.00 | 95 | 1016.5 |
| 20260508101517 | 39 | 32 | 0.0 | 1.0 | 0.00 | 0.00 | 0.00 | 95 | 1016.5 |
| 20260508100517 | 39 | 14 | 0.0 | 2.0 | 0.00 | 0.00 | 0.00 | 95 | 1016.6 |
| 20260508095520 | 38 | 29 | 0.0 | 2.0 | 0.00 | 0.00 | 0.00 | 95 | 1016.6 |
| 20260508094538 | 38 | 35 | 0.0 | 2.0 | 0.00 | 0.00 | 0.00 | 95 | 1016.5 |
| 20260508093517 | 38 | 28 | 1.0 | 2.0 | 0.00 | 0.00 | 0.00 | 95 | 1016.5 |
| 20260508092517 | 37 | 38 | 1.0 | 2.0 | 0.00 | 0.00 | 0.00 | 95 | 1016.5 |
| 20260508091538 | 37 | 16 | 0.0 | 1.0 | 0.00 | 0.00 | 0.00 | 95 | 1016.4 |
| 20260508090558 | 37 | 20 | 0.0 | 1.0 | 0.00 | 0.00 | 0.00 | 95 | 1016.4 |
| 20260508085518 | 37 | 33 | 0.0 | 2.0 | 0.00 | 0.00 | 0.00 | 95 | 1016.4 |
| 20260508084518 | 37 | 40 | 0.0 | 2.0 | 0.00 | 0.00 | 0.00 | 95 | 1016.4 |
| 20260508083518 | 38 | 21 | 0.0 | 1.0 | 0.00 | 0.00 | 0.00 | 95 | 1016.3 |
| 20260508082518 | 38 | 32 | 0.0 | 2.0 | 0.00 | 0.00 | 0.00 | 95 | 1016.3 |
| 20260508081519 | 38 | 24 | 0.0 | 2.0 | 0.00 | 0.00 | 0.00 | 95 | 1016.3 |
| 20260508080539 | 38 | 19 | 0.0 | 1.0 | 0.00 | 0.00 | 0.00 | 95 | 1016.3 |
| 20260508075518 | 38 | 22 | 0.0 | 2.0 | 0.00 | 0.00 | 0.00 | 95 | 1016.2 |
| 20260508074516 | 38 | 33 | 0.0 | 1.0 | 0.00 | 0.00 | 0.00 | 95 | 1016.3 |
| 20260508073539 | 38 | 27 | 1.0 | 2.0 | 0.00 | 0.00 | 0.00 | 94 | 1016.3 |
| 20260508072519 | 38 | 10 | 1.0 | 2.0 | 0.00 | 0.00 | 0.00 | 94 | 1016.1 |
| 20260508071519 | 38 | 18 | 0.0 | 2.0 | 0.00 | 0.00 | 0.00 | 94 | 1016.2 |
| 20260508070516 | 38 | 6 | 0.0 | 1.0 | 0.00 | 0.00 | 0.00 | 94 | 1016.4 |
| 20260508065516 | 38 | 359 | 0.0 | 1.0 | 0.00 | 0.00 | 0.00 | 94 | 1016.6 |
| 20260508064519 | 38 | 27 | 0.0 | 2.0 | 0.00 | 0.00 | 0.00 | 94 | 1016.8 |
| 20260508063519 | 38 | 29 | 0.0 | 1.0 | 0.00 | 0.00 | 0.00 | 94 | 1016.9 |
| 20260508062517 | 38 | 21 | 0.0 | 1.0 | 0.00 | 0.00 | 0.00 | 94 | 1017.0 |
| 20260508061517 | 38 | 25 | 0.0 | 1.0 | 0.00 | 0.00 | 0.00 | 94 | 1017.0 |
| 20260508060517 | 38 | 30 | 0.0 | 1.0 | 0.00 | 0.00 | 0.00 | 94 | 1017.2 |
| 20260508055520 | 38 | 5 | 0.0 | 2.0 | 0.00 | 0.00 | 0.00 | 93 | 1017.1 |
| 20260508054517 | 39 | 18 | 0.0 | 1.0 | 0.00 | 0.00 | 0.00 | 93 | 1017.0 |
| 20260508053517 | 39 | 41 | 0.0 | 2.0 | 0.00 | 0.00 | 0.00 | 93 | 1017.1 |
| 20260508052517 | 39 | 6 | 0.0 | 2.0 | 0.00 | 0.00 | 0.00 | 93 | 1016.9 |
| 20260508051537 | 40 | 17 | 0.0 | 1.0 | 0.00 | 0.00 | 0.00 | 93 | 1017.0 |
| 20260508050518 | 40 | 25 | 0.0 | 1.0 | 0.00 | 0.00 | 0.00 | 93 | 1017.0 |
| 20260508045518 | 40 | 44 | 0.0 | 2.0 | 0.00 | 0.00 | 0.00 | 93 | 1016.9 |
| 20260508044518 | 40 | 24 | 0.0 | 1.0 | 0.00 | 0.00 | 0.00 | 93 | 1017.0 |
| 20260508043518 | 40 | 22 | 0.0 | 1.0 | 0.00 | 0.00 | 0.00 | 93 | 1017.0 |
| 20260508042518 | 39 | 16 | 0.0 | 1.0 | 0.00 | 0.00 | 0.00 | 92 | 1017.0 |
| 20260508041518 | 40 | 27 | 0.0 | 1.0 | 0.00 | 0.00 | 0.00 | 92 | 1016.9 |
| 20260508040518 | 40 | 10 | 0.0 | 1.0 | 0.00 | 0.00 | 0.00 | 92 | 1016.8 |
| 20260508035518 | 40 | 19 | 0.0 | 1.0 | 0.00 | 0.00 | 0.00 | 92 | 1016.9 |
| 20260508034516 | 39 | 2 | 0.0 | 1.0 | 0.00 | 0.00 | 0.00 | 91 | 1016.9 |
| 20260508033519 | 39 | 18 | 0.0 | 1.0 | 0.00 | 0.00 | 0.00 | 89 | 1017.0 |
| 20260508032519 | 40 | 9 | 0.0 | 1.0 | 0.00 | 0.00 | 0.00 | 91 | 1017.0 |
| 20260508031519 | 40 | 9 | 0.0 | 1.0 | 0.00 | 0.00 | 0.00 | 90 | 1016.9 |
| 20260508030516 | 40 | 15 | 0.0 | 1.0 | 0.00 | 0.00 | 0.00 | 89 | 1016.9 |
| 20260508025516 | 40 | 6 | 0.0 | 1.0 | 0.00 | 0.00 | 0.00 | 87 | 1016.9 |
| 20260508024519 | 40 | 28 | 0.0 | 0.0 | 0.00 | 0.00 | 0.00 | 86 | 1016.8 |
| 20260508023700 | 41 | 41 | 0.0 | 1.0 | 0.00 | 0.00 | 0.00 | 85 | 1016.8 |
| 20260508022517 | 41 | 3 | 0.0 | 2.0 | 0.00 | 0.00 | 0.00 | 86 | 1016.7 |
| 20260508021517 | 41 | 33 | 0.0 | 1.0 | 0.00 | 0.00 | 0.00 | 85 | 1016.6 |
| 20260508020517 | 42 | 16 | 0.0 | 2.0 | 0.00 | 0.00 | 0.00 | 82 | 1016.7 |
| 20260508015520 | 42 | 26 | 0.0 | 1.0 | 0.00 | 0.00 | 0.00 | 80 | 1016.6 |
| 20260508014517 | 43 | 24 | 0.0 | 1.0 | 0.00 | 0.00 | 0.00 | 80 | 1016.6 |
| 20260508013517 | 43 | 18 | 0.0 | 1.0 | 0.00 | 0.00 | 0.00 | 77 | 1016.5 |
| 20260508012517 | 44 | 18 | 0.0 | 1.0 | 0.00 | 0.00 | 0.00 | 73 | 1016.4 |
| 20260508011518 | 45 | 27 | 0.0 | 1.0 | 0.00 | 0.00 | 0.00 | 70 | 1016.4 |
| 20260508010538 | 46 | 33 | 0.0 | 1.0 | 0.00 | 0.00 | 0.00 | 67 | 1016.5 |
| 20260508005518 | 47 | 47 | 0.0 | 0.0 | 0.00 | 0.00 | 0.00 | 69 | 1016.4 |
| 20260508004518 | 49 | 39 | 0.0 | 1.0 | 0.00 | 0.00 | 0.00 | 66 | 1016.3 |
| 20260508003518 | 50 | 10 | 0.0 | 1.0 | 0.00 | 0.00 | 0.00 | 64 | 1016.3 |
| 20260508002518 | 51 | 26 | 1.0 | 2.0 | 0.00 | 0.00 | 0.00 | 65 | 1016.2 |
| 20260508001518 | 52 | 29 | 0.0 | 2.0 | 0.00 | 0.00 | 0.00 | 58 | 1016.1 |
| 20260508000518 | 54 | 21 | 0.0 | 2.0 | 0.00 | 0.00 | 0.00 | 58 | 1016.1 |
| 20260507235539 | 54 | 2 | 1.0 | 2.0 | 0.00 | 0.00 | 0.00 | 54 | 1016.1 |
| 20260507234516 | 55 | 18 | 1.0 | 3.0 | 0.00 | 0.00 | 0.00 | 52 | 1016.0 |
| 20260507233542 | 56 | 26 | 0.0 | 1.0 | 0.00 | 0.00 | 0.00 | 52 | 1016.0 |
| 20260507232522 | 57 | 18 | 0.0 | 1.0 | 0.00 | 0.00 | 0.00 | 50 | 1016.0 |
| 20260507231522 | 57 | 23 | 0.0 | 2.0 | 0.00 | 0.00 | 0.00 | 49 | 1016.0 |